This is the latest recevied weather packets stored in our database for station/object SQ8AQX-13. If no packets are shown the sender has not sent any weather packets the latest 10 day(s).
| Time | Temp. | Humidity | Pressure | Rain* | Wind** | Luminosity | Snow |
|---|---|---|---|---|---|---|---|
| 1777612372 | 6.67° C | 57% | 1029.5 hPa | - | - | - | - |
| 1777611772 | 6.67° C | 56% | 1029.6 hPa | - | - | - | - |
| 1777611172 | 6.67° C | 56% | 1029.6 hPa | - | - | - | - |
| 1777608772 | 6.11° C | 57% | 1029.3 hPa | - | - | - | - |
| 1777608172 | 6.11° C | 56% | 1029.2 hPa | - | - | - | - |
| 1777607572 | 5.56° C | 57% | 1029.4 hPa | - | - | - | - |
| 1777604571 | 6.11° C | 56% | 1029.7 hPa | - | - | - | - |
| 1777603971 | 6.11° C | 54% | 1029.7 hPa | - | - | - | - |
| 1777603371 | 6.11° C | 54% | 1029.6 hPa | - | - | - | - |
| 1777601571 | 5.56° C | 56% | 1029.4 hPa | - | - | - | - |
| 1777600971 | 5.56° C | 55% | 1029.4 hPa | - | - | - | - |
| 1777600370 | 5.56° C | 53% | 1029.5 hPa | - | - | - | - |
| 1777598570 | 5.56° C | 52% | 1029.7 hPa | - | - | - | - |
| 1777597970 | 6.11° C | 52% | 1029.7 hPa | - | - | - | - |
| 1777597370 | 5.56° C | 51% | 1029.6 hPa | - | - | - | - |
| 1777595569 | 6.11° C | 50% | 1029.5 hPa | - | - | - | - |
| 1777594969 | 6.11° C | 49% | 1029.5 hPa | - | - | - | - |
| 1777594369 | 5.56° C | 50% | 1029.6 hPa | - | - | - | - |
| 1777592569 | 7.22° C | 49% | 1029.6 hPa | - | - | - | - |
| 1777591969 | 6.67° C | 47% | 1029.7 hPa | - | - | - | - |
| 1777591369 | 6.67° C | 47% | 1029.7 hPa | - | - | - | - |
| 1777589568 | 7.78° C | 45% | 1029.6 hPa | - | - | - | - |
| 1777588968 | 7.78° C | 45% | 1029.7 hPa | - | - | - | - |
| 1777588368 | 7.78° C | 44% | 1029.6 hPa | - | - | - | - |
| 1777586568 | 7.78° C | 41% | 1029.7 hPa | - | - | - | - |
* Rain since midnight (hover to see other rain measurements)
** Current wind speed in m/s (hover to see current wind gust speed)